TimeMDT,TemperatureF,Dew PointF,Humidity,Sea Level PressureIn,VisibilityMPH,Wind Direction,Wind SpeedMPH,Gust SpeedMPH,PrecipitationIn,Events,Conditions,WindDirDegrees,DateUTC
12:48 AM,59.0,42.1,53,29.79,-9999.0,ESE,16.1,28.8,N/A,,Unknown,110,2013-05-24 06:48:00
1:48 AM,57.0,42.1,57,29.75,-9999.0,ESE,17.3,26.5,N/A,,Unknown,110,2013-05-24 07:48:00
2:48 AM,55.9,43.0,62,29.73,-9999.0,ESE,16.1,24.2,N/A,,Unknown,110,2013-05-24 08:48:00
3:48 AM,55.9,43.0,62,29.75,-9999.0,SSE,5.8,-,N/A,,Unknown,150,2013-05-24 09:48:00
4:48 AM,51.1,43.0,74,29.75,-9999.0,West,4.6,-,N/A,,Unknown,260,2013-05-24 10:48:00
5:48 AM,51.1,44.1,77,29.75,-9999.0,WNW,4.6,-,N/A,,Unknown,300,2013-05-24 11:48:00
6:48 AM,53.1,48.0,83,29.77,-9999.0,WSW,3.5,-,N/A,,Unknown,240,2013-05-24 12:48:00
7:48 AM,51.1,45.0,80,29.83,-9999.0,West,24.2,29.9,N/A,,Unknown,280,2013-05-24 13:48:00
8:48 AM,52.0,43.0,71,29.85,-9999.0,West,18.4,-,N/A,,Unknown,260,2013-05-24 14:48:00
9:48 AM,55.9,45.0,67,29.83,-9999.0,WNW,9.2,-,0.01,,Unknown,290,2013-05-24 15:48:00
10:48 AM,62.1,41.0,46,29.85,-9999.0,West,17.3,25.3,N/A,,Unknown,280,2013-05-24 16:48:00
11:48 AM,63.0,42.1,46,29.86,-9999.0,WSW,11.5,21.9,N/A,,Unknown,250,2013-05-24 17:48:00
12:48 PM,66.9,41.0,39,29.87,-9999.0,West,15.0,25.3,N/A,,Unknown,260,2013-05-24 18:48:00
1:48 PM,66.9,39.0,36,29.89,-9999.0,WNW,17.3,24.2,N/A,,Unknown,290,2013-05-24 19:48:00
2:48 PM,66.9,34.0,30,29.89,-9999.0,WSW,8.1,-,N/A,,Unknown,250,2013-05-24 20:48:00
3:35 PM,69.8,33.8,27,29.90,-9999.0,Variable,4.6,21.9,N/A,,Unknown,0,2013-05-24 21:35:00
3:48 PM,68.0,33.1,27,29.89,-9999.0,West,10.4,20.7,N/A,,Unknown,260,2013-05-24 21:48:00
4:48 PM,71.1,28.9,21,29.89,-9999.0,West,5.8,18.4,N/A,,Unknown,270,2013-05-24 22:48:00
5:48 PM,72.0,28.0,20,29.88,-9999.0,SW,18.4,24.2,N/A,,Unknown,230,2013-05-24 23:48:00
6:48 PM,70.0,26.1,19,29.89,-9999.0,WSW,11.5,-,N/A,,Unknown,250,2013-05-25 00:48:00
7:48 PM,68.0,28.9,23,29.90,-9999.0,Calm,Calm,-,N/A,,Unknown,0,2013-05-25 01:48:00
8:48 PM,55.9,34.0,44,29.93,-9999.0,NE,8.1,-,N/A,,Unknown,40,2013-05-25 02:48:00
9:48 PM,54.0,33.1,45,29.94,-9999.0,ENE,8.1,-,N/A,,Unknown,60,2013-05-25 03:48:00
10:48 PM,53.1,34.0,48,29.95,-9999.0,East,5.8,-,N/A,,Unknown,100,2013-05-25 04:48:00
11:48 PM,52.0,34.0,50,29.95,-9999.0,East,9.2,-,N/A,,Unknown,100,2013-05-25 05:48:00